EN

Hourly Weather La Ceja

Today, 28 July, Wednesday

Time Temperature Precipitation Wind Pressure Humidity
00:00 +13°C° 0.2 mm 1 mps 587 mmHg 97%
01:00 +12°C° 0 mm 0 mps 587 mmHg 97%
02:00 +11°C° 0 mm 0 mps 587 mmHg 97%
03:00 +11°C° 0 mm 0 mps 586 mmHg 97%
04:00 +11°C° 0 mm 0 mps 586 mmHg 97%
05:00 +11°C° 0 mm 0 mps 586 mmHg 97%
06:00 +12°C° 0 mm 0 mps 587 mmHg 96%
07:00 +12°C° 0 mm 0 mps 587 mmHg 95%
08:00 +15°C° 0 mm 1 mps 588 mmHg 85%
09:00 +18°C° 0 mm 1 mps 589 mmHg 75%
10:00 +20°C° 0 mm 1 mps 589 mmHg 65%
11:00 +22°C° 0 mm 1 mps 589 mmHg 58%
12:00 +24°C° 0 mm 1 mps 589 mmHg 51%
13:00 +25°C° 0 mm 1 mps 589 mmHg 44%
14:00 +24°C° 0 mm 1 mps 588 mmHg 48%
15:00 +24°C° 0 mm 1 mps 587 mmHg 52%
16:00 +23°C° 0 mm 1 mps 586 mmHg 56%
17:00 +20°C° 0.5 mm 1 mps 586 mmHg 68%
18:00 +18°C° 0.5 mm 1 mps 586 mmHg 81%
19:00 +14°C° 0.5 mm 1 mps 586 mmHg 93%
20:00 +14°C° 0.6 mm 1 mps 586 mmHg 94%
21:00 +14°C° 0.6 mm 1 mps 587 mmHg 95%
22:00 +13°C° 0.6 mm 1 mps 587 mmHg 96%
23:00 +13°C° 0.1 mm 1 mps 587 mmHg 96%

Tomorrow, 29 July, Thursday

Time Temperature Precipitation Wind Pressure Humidity
00:00 +13°C° 0.1 mm 1 mps 586 mmHg 96%
01:00 +13°C° 0.1 mm 1 mps 586 mmHg 97%
02:00 +13°C° 0.1 mm 1 mps 586 mmHg 97%
03:00 +13°C° 0.1 mm 1 mps 586 mmHg 97%
04:00 +12°C° 0.1 mm 0 mps 585 mmHg 97%
05:00 +12°C° 0 mm 0 mps 586 mmHg 95%
06:00 +12°C° 0 mm 0 mps 586 mmHg 94%
07:00 +13°C° 0 mm 0 mps 587 mmHg 93%
08:00 +15°C° 0 mm 0 mps 588 mmHg 81%
09:00 +20°C° 0 mm 1 mps 589 mmHg 69%
10:00 +22°C° 0 mm 1 mps 589 mmHg 57%
11:00 +22°C° 0.3 mm 1 mps 589 mmHg 58%
12:00 +23°C° 0.3 mm 1 mps 589 mmHg 60%
13:00 +23°C° 0.3 mm 1 mps 588 mmHg 62%
14:00 +22°C° 0.9 mm 1 mps 588 mmHg 65%
15:00 +21°C° 0.9 mm 1 mps 587 mmHg 69%
16:00 +21°C° 0.9 mm 1 mps 587 mmHg 73%
17:00 +19°C° 0.8 mm 1 mps 586 mmHg 81%
18:00 +16°C° 0.8 mm 1 mps 586 mmHg 88%
19:00 +14°C° 0.8 mm 1 mps 586 mmHg 96%
20:00 +13°C° 0.5 mm 1 mps 586 mmHg 97%
21:00 +13°C° 0.5 mm 1 mps 587 mmHg 97%
22:00 +13°C° 0.5 mm 1 mps 587 mmHg 98%
23:00 +13°C° 0.3 mm 1 mps 587 mmHg 98%

Day after tomorrow, 30 July, Friday

Time Temperature Precipitation Wind Pressure Humidity
00:00 +12°C° 0.3 mm 0 mps 587 mmHg 98%
01:00 +12°C° 0.3 mm 0 mps 586 mmHg 98%
02:00 +12°C° 0.1 mm 0 mps 586 mmHg 98%
03:00 +12°C° 0.1 mm 0 mps 586 mmHg 98%
04:00 +12°C° 0.1 mm 1 mps 586 mmHg 98%
05:00 +12°C° 0.1 mm 0 mps 586 mmHg 98%
06:00 +12°C° 0.1 mm 0 mps 587 mmHg 97%
07:00 +12°C° 0.1 mm 0 mps 587 mmHg 97%
08:00 +14°C° 0.1 mm 0 mps 588 mmHg 85%
09:00 +19°C° 0.1 mm 1 mps 589 mmHg 74%
10:00 +21°C° 0.1 mm 1 mps 590 mmHg 62%
11:00 +22°C° 0.1 mm 1 mps 590 mmHg 57%
12:00 +23°C° 0.1 mm 1 mps 590 mmHg 51%
13:00 +25°C° 0.1 mm 1 mps 589 mmHg 46%
14:00 +24°C° 0.1 mm 1 mps 589 mmHg 47%
15:00 +24°C° 0.1 mm 1 mps 588 mmHg 49%
16:00 +24°C° 0.1 mm 1 mps 588 mmHg 50%
17:00 +21°C° 0.4 mm 1 mps 587 mmHg 65%
18:00 +18°C° 0.4 mm 1 mps 587 mmHg 79%
19:00 +14°C° 0.4 mm 1 mps 587 mmHg 94%
20:00 +13°C° 0.2 mm 1 mps 587 mmHg 94%
21:00 +13°C° 0.2 mm 1 mps 587 mmHg 95%
22:00 +13°C° 0.2 mm 1 mps 587 mmHg 96%
23:00 +13°C° 0 mm 1 mps 587 mmHg 97%

31 July, Saturday

Time Temperature Precipitation Wind Pressure Humidity
00:00 +12°C° 0 mm 1 mps 587 mmHg 97%
01:00 +12°C° 0 mm 1 mps 587 mmHg 97%
02:00 +12°C° 0 mm 1 mps 587 mmHg 97%
03:00 +12°C° 0 mm 1 mps 587 mmHg 97%
04:00 +12°C° 0 mm 1 mps 587 mmHg 97%
05:00 +12°C° 0 mm 1 mps 587 mmHg 96%
06:00 +12°C° 0 mm 0 mps 587 mmHg 94%
07:00 +12°C° 0 mm 0 mps 587 mmHg 93%
08:00 +16°C° 0 mm 1 mps 588 mmHg 79%
09:00 +20°C° 0 mm 1 mps 589 mmHg 66%
10:00 +22°C° 0 mm 1 mps 590 mmHg 52%
11:00 +23°C° 0 mm 1 mps 590 mmHg 49%
12:00 +24°C° 0 mm 1 mps 590 mmHg 47%
13:00 +25°C° 0 mm 1 mps 590 mmHg 44%
14:00 +25°C° 0.1 mm 1 mps 589 mmHg 46%
15:00 +24°C° 0.1 mm 1 mps 589 mmHg 48%
16:00 +24°C° 0.1 mm 1 mps 588 mmHg 51%
17:00 +21°C° 0.1 mm 1 mps 588 mmHg 63%
18:00 +18°C° 0.1 mm 1 mps 587 mmHg 76%
19:00 +14°C° 0.1 mm 1 mps 587 mmHg 88%
20:00 +14°C° 0.2 mm 1 mps 587 mmHg 89%
21:00 +13°C° 0.2 mm 1 mps 587 mmHg 90%
22:00 +13°C° 0.2 mm 1 mps 588 mmHg 91%
23:00 +12°C° 0 mm 1 mps 587 mmHg 92%

1 August, Sunday

Time Temperature Precipitation Wind Pressure Humidity
00:00 +12°C° 0 mm 1 mps 587 mmHg 93%
01:00 +12°C° 0 mm 1 mps 587 mmHg 94%
02:00 +12°C° 0 mm 1 mps 586 mmHg 94%
03:00 +12°C° 0 mm 1 mps 586 mmHg 94%
04:00 +12°C° 0 mm 1 mps 586 mmHg 94%
05:00 +12°C° 0 mm 0 mps 587 mmHg 92%
06:00 +13°C° 0 mm 0 mps 587 mmHg 90%
07:00 +13°C° 0 mm 0 mps 588 mmHg 88%
08:00 +18°C° 0 mm 1 mps 589 mmHg 75%
09:00 +20°C° 0 mm 1 mps 590 mmHg 63%
10:00 +23°C° 0 mm 1 mps 591 mmHg 51%
11:00 +24°C° 0 mm 1 mps 590 mmHg 48%
12:00 +25°C° 0 mm 1 mps 590 mmHg 45%
13:00 +25°C° 0 mm 1 mps 590 mmHg 43%
14:00 +25°C° 0.1 mm 1 mps 589 mmHg 45%
15:00 +24°C° 0.1 mm 1 mps 589 mmHg 47%
16:00 +24°C° 0.1 mm 1 mps 588 mmHg 48%
17:00 +21°C° 0 mm 1 mps 588 mmHg 60%
18:00 +19°C° 0 mm 1 mps 587 mmHg 72%
19:00 +15°C° 0 mm 1 mps 587 mmHg 84%
20:00 +14°C° 0.2 mm 1 mps 587 mmHg 87%
21:00 +14°C° 0.2 mm 1 mps 587 mmHg 90%
22:00 +13°C° 0.2 mm 1 mps 588 mmHg 93%
23:00 +13°C° 0.1 mm 1 mps 587 mmHg 94%

2 August, Monday

Time Temperature Precipitation Wind Pressure Humidity
00:00 +13°C° 0.1 mm 1 mps 587 mmHg 94%
01:00 +13°C° 0.1 mm 1 mps 587 mmHg 95%
02:00 +13°C° 0 mm 1 mps 587 mmHg 96%
03:00 +12°C° 0 mm 1 mps 587 mmHg 96%
04:00 +11°C° 0 mm 0 mps 586 mmHg 96%
05:00 +12°C° 0 mm 0 mps 587 mmHg 94%
06:00 +12°C° 0 mm 0 mps 587 mmHg 93%
07:00 +13°C° 0 mm 0 mps 588 mmHg 91%
08:00 +15°C° 0 mm 0 mps 588 mmHg 81%
09:00 +19°C° 0 mm 1 mps 589 mmHg 71%
10:00 +21°C° 0 mm 1 mps 590 mmHg 60%
11:00 +21°C° 0.5 mm 1 mps 590 mmHg 61%
12:00 +21°C° 0.5 mm 1 mps 589 mmHg 62%
13:00 +21°C° 0.5 mm 2 mps 589 mmHg 63%
14:00 +21°C° 0.5 mm 1 mps 589 mmHg 66%
15:00 +21°C° 0.5 mm 1 mps 588 mmHg 68%
16:00 +20°C° 0.5 mm 1 mps 588 mmHg 71%
17:00 +18°C° 0.4 mm 1 mps 588 mmHg 78%
18:00 +15°C° 0.4 mm 1 mps 587 mmHg 86%
19:00 +14°C° 0.4 mm 1 mps 587 mmHg 93%
20:00 +13°C° 0.1 mm 1 mps 587 mmHg 93%
21:00 +13°C° 0.1 mm 1 mps 588 mmHg 93%
22:00 +12°C° 0.1 mm 1 mps 588 mmHg 94%
23:00 +12°C° 0 mm 1 mps 588 mmHg 93%
Show more